Wind_Speed
36 35 33 33 33 34 35 35 36 36 39 38 38 39 36 37 33 31 32 29 31 36 34 33 33 33 33 34 36 36 40 38 38 37 37 39 40 41 43 44 45 46 46
41 40 38 37 37 37 37 37 35 35 37 39 40 44 41 40 36 34 32 30 31 36 37 35 34 35 35 35 34 35 36 38 42 40 39 39 40 42 44 45 46 46 46
44 44 43 42 42 41 40 39 40 40 38 39 42 46 45 44 39 35 33 35 36 35 36 34 36 36 37 37 34 36 36 38 39 36 38 40 42 44 45 46 47 47 47
45 46 46 45 45 45 46 46 44 44 42 41 41 45 48 45 42 40 38 36 36 35 35 35 37 37 39 37 34 36 39 40 38 39 39 43 44 45 45 46 47 48 48
47 49 50 52 53 54 53 52 50 48 47 44 41 42 48 50 44 43 40 38 39 38 38 38 37 38 38 38 37 37 38 39 40 41 42 44 44 45 46 47 47 48 50
56 57 58 59 61 62 62 61 57 55 53 50 44 44 42 48 49 48 44 42 42 40 39 39 39 39 40 40 38 39 40 37 39 40 42 44 45 47 49 49 49 48 46
57 57 55 55 57 59 59 61 64 61 58 57 52 48 44 42 50 53 49 45 46 43 40 40 40 40 41 41 39 39 39 40 41 43 45 46 48 50 52 53 52 49 48
49 52 53 53 52 51 53 55 56 61 63 61 59 54 49 43 48 54 51 47 47 46 42 42 41 42 43 41 40 40 40 41 42 43 45 48 50 52 54 55 54 53 53
50 50 52 53 54 54 56 55 56 57 64 64 61 57 50 49 50 49 50 49 48 48 45 42 42 42 44 43 41 41 42 42 44 45 48 49 52 54 55 56 56 57 56
50 53 51 49 49 53 54 61 56 57 56 63 62 57 54 54 51 48 47 49 48 47 45 43 42 42 43 43 42 41 42 44 46 48 49 52 54 54 54 55 57 57 60
51 50 48 45 44 40 45 54 56 55 53 56 59 57 55 53 51 47 46 48 47 45 44 43 41 41 42 42 42 41 43 46 48 49 52 56 55 54 55 56 59 61 64
45 46 41 40 35 31 40 49 54 52 44 44 55 51 47 49 49 47 46 46 43 43 43 42 42 42 41 41 39 42 43 52 51 50 55 56 54 55 56 60 62 63 64
48 44 35 32 32 40 44 49 49 41 35 41 49 49 45 47 47 47 44 43 42 42 42 42 44 39 38 38 40 44 49 48 52 52 55 53 54 58 60 62 62 63 64
44 39 34 28 29 37 41 38 40 28 36 39 42 43 41 42 44 43 39 39 40 41 41 40 40 46 34 34 44 49 49 52 51 49 55 56 58 60 59 60 62 62 62
31 32 24 20 28 28 25 27 27 28 33 35 30 36 38 40 40 37 34 36 39 37 39 36 31 37 40 41 51 53 57 45 50 53 54 57 58 59 61 61 61 61 65
10 13 11 13 11 11 14 18 17 18 24 29 28 32 34 35 34 31 33 34 33 33 36 40 43 36 40 48 50 53 47 53 50 52 55 56 59 60 60 61 63 66 71
8 5 5 9 9 7 9 11 16 21 21 25 29 31 29 27 27 30 31 27 34 32 29 36 37 46 44 45 48 51 46 50 53 53 55 58 59 59 60 63 67 71 76
2 4 9 12 11 12 16 19 22 24 24 25 25 24 24 23 20 29 32 30 35 29 33 35 44 45 47 41 42 46 48 50 52 54 56 56 57 60 64 67 71 75 83
16 15 17 17 18 18 15 15 19 19 19 19 17 14 17 19 23 26 27 33 37 26 27 38 42 36 38 43 45 46 48 52 53 54 55 57 61 64 68 74 78 84 92
16 17 16 13 12 13 14 15 17 17 17 10 15 20 22 19 27 26 29 24 27 29 34 33 37 38 41 43 45 48 50 51 52 55 58 63 66 69 77 81 86 92 99
9 9 10 12 13 13 14 16 18 16 14 19 14 9 13 21 30 27 33 26 36 27 31 34 35 37 40 44 46 48 48 50 54 59 63 67 72 77 82 89 94 99 90
9 6 8 10 11 15 14 14 21 16 11 9 8 17 16 14 28 29 21 24 27 29 33 34 36 40 42 43 43 46 51 55 59 64 69 73 77 82 90 96 97 75 55
9 11 9 8 9 5 3 14 12 11 18 14 13 11 12 15 16 17 21 25 28 29 32 35 37 38 39 42 46 50 56 60 65 69 74 80 85 92 96 93 65 47 30
10 10 10 10 10 12 13 13 10 7 8 10 9 10 12 15 19 21 24 27 29 32 33 34 36 38 42 46 51 55 61 66 71 75 83 91 96 97 82 58 39 24 24
7 8 8 7 7 7 6 5 3 2 4 7 9 12 16 19 22 24 27 28 30 32 33 35 38 42 47 51 54 60 65 71 77 85 94 99 89 72 50 31 18 20 21
5 5 5 4 4 4 4 3 3 4 7 10 13 16 19 21 23 25 28 30 32 32 34 38 43 47 50 54 59 65 73 80 87 97 94 78 58 39 21 15 17 16 21
Wind_Direction
248 245 244 245 247 248 251 253 254 261 257 251 258 265 264 266 268 271 274 273 267 271 273 275 279 283 286 289 287 289 287 280 281 283 282 282 283 283 284 284 284 285 286
248 247 246 241 239 240 243 249 254 257 262 257 247 254 261 264 266 266 270 271 267 266 271 277 276 279 284 288 290 292 293 284 283 281 283 285 287 288 288 288 287 287 287
246 249 250 247 244 244 245 247 251 252 255 260 255 251 252 259 265 265 263 267 267 272 272 273 275 278 283 286 288 289 289 288 289 286 286 289 291 290 289 289 288 288 287
250 250 250 252 253 252 253 255 253 255 257 257 258 257 256 254 261 264 264 265 270 272 274 275 276 280 282 284 284 286 290 289 289 285 287 290 292 292 291 291 291 291 290
257 259 259 257 258 260 262 261 260 257 256 256 254 257 256 255 255 259 261 263 265 269 270 274 279 282 283 284 288 288 287 288 291 291 292 293 294 294 295 296 296 295 293
262 261 261 260 260 260 260 257 257 258 257 257 253 252 254 252 255 256 258 258 263 266 270 273 278 279 280 281 283 286 291 287 293 294 293 294 294 296 296 294 293 291 290
269 267 265 263 261 258 257 256 259 252 250 253 253 252 250 247 247 252 255 258 260 262 260 269 274 276 277 281 281 284 286 288 291 293 294 296 298 298 297 296 294 292 291
277 273 270 269 268 265 262 258 252 249 247 245 251 248 248 248 246 248 251 256 259 261 262 267 270 273 277 280 282 284 286 289 291 292 294 296 297 298 297 296 295 293 294
275 274 273 272 270 269 268 261 256 253 245 242 241 243 243 244 245 247 247 251 255 258 261 265 269 273 275 279 281 283 286 289 292 293 295 296 296 297 297 296 296 296 295
287 283 279 281 280 284 275 265 253 247 250 239 239 237 236 239 241 244 246 250 254 257 260 264 269 272 274 276 280 284 288 290 291 293 294 293 294 295 296 296 296 297 297
285 280 282 285 283 274 263 247 235 233 240 243 234 234 234 237 239 242 245 248 252 256 259 264 269 272 273 277 281 285 287 289 292 292 291 291 295 295 297 296 297 297 298
280 275 278 277 273 268 263 242 234 228 229 238 233 229 232 235 236 237 243 247 252 255 260 266 269 271 274 279 283 286 292 294 288 288 286 291 293 296 295 295 297 298 300
277 272 274 277 273 266 264 247 235 229 220 226 228 223 226 229 230 235 241 248 253 257 262 268 272 273 276 284 282 292 289 300 287 282 290 292 293 293 295 297 299 301 301
276 270 278 262 251 259 265 246 233 226 219 219 224 219 224 228 229 233 240 247 252 256 262 268 273 276 277 291 287 284 291 287 284 288 289 292 294 296 298 299 300 301 300
291 275 265 250 245 256 258 215 241 229 220 212 211 213 221 225 227 231 240 248 255 259 262 269 270 259 288 272 283 288 285 285 284 290 293 294 297 299 299 300 300 300 302
295 271 245 226 237 220 233 246 252 206 196 205 204 210 220 224 226 231 240 247 258 264 271 268 256 282 272 280 286 287 285 290 291 293 295 298 298 300 300 300 303 303 304
321 206 179 186 190 193 204 197 183 177 185 193 199 209 217 221 225 235 243 242 253 258 265 266 267 272 263 272 281 286 288 292 293 295 298 299 299 299 301 303 304 304 305
301 204 171 174 175 180 178 174 175 184 185 190 201 205 209 218 227 239 247 242 268 254 251 265 281 281 285 285 287 290 293 295 297 299 298 299 300 302 303 304 306 305 305
60 89 107 118 129 137 147 168 180 174 179 186 192 201 223 219 236 241 255 266 257 252 279 272 277 281 291 291 292 296 297 298 300 300 299 301 303 304 306 307 307 307 308
63 89 99 105 110 124 138 147 148 157 155 159 177 201 225 221 228 230 246 251 258 280 285 284 286 290 292 297 299 299 300 301 300 302 303 303 304 306 307 308 308 308 309
70 93 95 96 109 120 129 136 145 159 193 206 197 223 252 233 231 252 271 283 271 287 281 285 292 297 298 300 301 300 300 301 303 305 306 306 306 306 308 309 309 309 312
60 85 102 108 118 130 146 142 149 150 189 203 227 225 251 260 259 256 273 280 282 290 296 299 301 300 300 301 302 303 305 306 307 307 307 306 306 307 308 308 310 312 310
356 63 96 90 108 130 125 185 140 165 201 218 236 251 258 284 288 287 282 286 291 298 299 302 302 302 303 305 306 308 308 308 309 308 307 308 308 308 309 312 311 310 305
36 53 68 76 84 87 106 128 165 192 202 228 253 277 287 286 285 292 298 301 302 302 306 306 306 307 307 308 307 308 310 310 310 311 311 311 309 310 312 311 310 303 309
14 29 42 55 70 78 91 102 119 237 274 279 283 280 284 294 299 299 300 303 307 309 309 307 307 307 308 309 309 310 311 312 312 312 312 312 312 311 312 309 303 312 318
29 7 356 7 9 11 4 345 310 277 271 281 290 295 297 297 301 308 311 312 310 308 307 308 308 308 309 309 310 312 313 313 313 314 315 311 311 311 309 310 315 322 327
Height
5752 5755 5757 5759 5760 5763 5763 5765 5766 5767 5770 5773 5774 5772 5773 5774 5777 5777 5779 5781 5784 5781 5780 5780 5781 5780 5779 5778 5776 5775 5773 5771 5770 5769 5768 5767 5765 5763 5762 5760 5758 5756 5754
5742 5744 5746 5748 5750 5752 5754 5754 5756 5757 5759 5762 5766 5765 5765 5764 5768 5770 5772 5774 5774 5772 5772 5773 5773 5773 5772 5771 5769 5767 5764 5763 5762 5760 5759 5758 5757 5754 5752 5750 5747 5745 5743
5733 5734 5735 5737 5739 5741 5743 5745 5746 5746 5748 5751 5753 5755 5756 5757 5760 5763 5765 5764 5764 5764 5763 5765 5765 5764 5764 5762 5761 5759 5757 5755 5754 5752 5751 5749 5747 5745 5743 5740 5737 5734 5731
5722 5724 5725 5727 5729 5731 5732 5734 5736 5737 5738 5740 5742 5744 5746 5749 5751 5753 5754 5755 5755 5756 5755 5756 5756 5756 5755 5754 5753 5751 5749 5747 5745 5744 5742 5740 5737 5735 5733 5730 5726 5723 5719
5712 5714 5715 5717 5718 5719 5721 5722 5723 5725 5726 5729 5733 5734 5736 5738 5743 5743 5745 5746 5746 5746 5747 5747 5747 5747 5746 5745 5743 5743 5741 5739 5737 5735 5733 5730 5727 5724 5722 5719 5715 5710 5706
5697 5700 5701 5702 5703 5703 5704 5705 5708 5710 5713 5716 5721 5723 5727 5729 5731 5733 5734 5736 5736 5737 5737 5738 5739 5739 5738 5737 5735 5733 5732 5730 5727 5725 5723 5720 5717 5714 5710 5708 5705 5702 5698
5681 5683 5683 5683 5683 5682 5683 5686 5690 5695 5697 5700 5708 5712 5716 5719 5721 5720 5723 5726 5727 5728 5728 5729 5730 5730 5729 5728 5726 5724 5722 5720 5718 5715 5712 5709 5705 5702 5698 5694 5691 5689 5687
5664 5665 5664 5663 5662 5661 5665 5669 5670 5676 5679 5684 5693 5698 5704 5707 5707 5708 5713 5717 5718 5719 5719 5720 5720 5720 5720 5719 5718 5716 5713 5711 5708 5705 5701 5698 5694 5690 5685 5681 5677 5675 5671
5648 5647 5644 5641 5639 5641 5644 5648 5653 5656 5660 5668 5676 5684 5692 5694 5695 5699 5702 5705 5707 5709 5710 5711 5710 5711 5710 5710 5708 5706 5704 5701 5698 5694 5690 5686 5682 5677 5672 5667 5662 5658 5656
5625 5624 5623 5621 5617 5618 5620 5625 5631 5638 5643 5649 5661 5670 5677 5679 5683 5687 5691 5694 5696 5699 5701 5701 5701 5701 5702 5701 5699 5697 5694 5691 5687 5683 5679 5674 5669 5664 5659 5654 5649 5643 5638
5608 5606 5603 5599 5596 5597 5599 5605 5610 5616 5626 5634 5645 5655 5662 5668 5672 5677 5681 5684 5687 5690 5692 5693 5693 5693 5692 5691 5689 5686 5683 5680 5676 5672 5667 5662 5657 5651 5646 5641 5634 5628 5621
5591 5589 5588 5583 5582 5582 5586 5590 5595 5601 5612 5622 5631 5643 5652 5657 5662 5667 5672 5675 5679 5681 5683 5684 5684 5683 5683 5681 5679 5676 5673 5669 5664 5660 5655 5649 5644 5639 5633 5627 5620 5613 5606
5575 5574 5572 5571 5573 5572 5575 5577 5586 5594 5601 5610 5620 5630 5639 5645 5651 5657 5663 5668 5671 5673 5674 5675 5675 5674 5672 5671 5668 5665 5662 5656 5653 5648 5643 5637 5631 5624 5618 5612 5604 5597 5589
5561 5559 5560 5562 5562 5562 5564 5570 5580 5587 5591 5600 5609 5620 5630 5637 5643 5650 5655 5659 5662 5664 5665 5665 5664 5660 5661 5659 5658 5655 5650 5645 5641 5636 5631 5624 5617 5610 5603 5596 5588 5580 5572
5549 5549 5552 5552 5553 5556 5559 5566 5574 5579 5584 5592 5602 5613 5622 5629 5635 5642 5647 5651 5654 5655 5656 5656 5656 5658 5652 5649 5648 5643 5639 5633 5628 5622 5616 5610 5602 5595 5588 5580 5573 5564 5555
5543 5544 5545 5547 5550 5554 5559 5565 5569 5572 5580 5591 5599 5608 5617 5624 5630 5636 5640 5643 5646 5648 5648 5646 5644 5645 5644 5640 5636 5632 5627 5621 5615 5609 5602 5595 5588 5580 5572 5564 5555 5546 5535
5543 5543 5544 5547 5549 5553 5557 5562 5567 5573 5580 5589 5597 5605 5614 5621 5626 5629 5633 5637 5639 5641 5641 5637 5636 5636 5632 5628 5624 5619 5614 5609 5603 5596 5589 5582 5574 5566 5558 5549 5540 5530 5517
5547 5546 5547 5548 5550 5553 5557 5562 5567 5573 5580 5588 5597 5605 5611 5616 5620 5624 5626 5631 5633 5632 5632 5632 5632 5627 5622 5617 5613 5608 5603 5597 5590 5583 5575 5568 5560 5552 5543 5534 5524 5513 5500
5555 5552 5550 5551 5554 5557 5562 5566 5571 5576 5583 5590 5597 5604 5609 5611 5615 5618 5622 5623 5625 5623 5624 5624 5620 5615 5609 5607 5602 5596 5590 5584 5577 5568 5561 5553 5545 5535 5526 5516 5505 5493 5478
5565 5562 5560 5561 5561 5563 5567 5571 5575 5580 5585 5591 5598 5604 5609 5609 5610 5613 5618 5618 5617 5615 5612 5611 5609 5604 5601 5596 5590 5585 5578 5571 5564 5555 5546 5538 5528 5518 5507 5496 5485 5473 5457
5573 5570 5569 5569 5569 5571 5574 5576 5580 5580 5587 5590 5597 5603 5607 5605 5609 5612 5613 5610 5608 5606 5606 5604 5599 5595 5591 5585 5579 5573 5566 5559 5551 5542 5532 5521 5512 5501 5489 5476 5462 5447 5433
5579 5577 5576 5576 5576 5577 5580 5581 5581 5588 5592 5594 5597 5600 5603 5604 5605 5606 5604 5604 5603 5599 5596 5592 5588 5585 5580 5574 5568 5561 5554 5545 5537 5527 5517 5506 5494 5481 5468 5454 5440 5425 5414
5582 5581 5581 5580 5581 5581 5581 5583 5586 5589 5594 5595 5598 5599 5600 5601 5601 5600 5599 5598 5595 5590 5588 5583 5579 5575 5570 5564 5557 5548 5540 5531 5522 5511 5499 5487 5474 5460 5445 5430 5418 5410 5403
5587 5585 5584 5584 5584 5584 5585 5588 5590 5591 5593 5596 5598 5597 5597 5597 5597 5594 5592 5589 5586 5583 5578 5574 5570 5565 5559 5552 5545 5537 5527 5517 5506 5493 5479 5464 5449 5434 5422 5411 5404 5400 5396
5587 5586 5586 5586 5586 5587 5588 5589 5589 5591 5592 5593 5594 5594 5594 5591 5589 5587 5585 5582 5577 5573 5569 5565 5561 5555 5549 5541 5533 5524 5514 5503 5490 5475 5458 5440 5423 5411 5403 5398 5396 5393 5390
5590 5589 5587 5586 5586 5586 5587 5588 5589 5590 5591 5591 5590 5589 5588 5586 5583 5580 5576 5572 5569 5566 5562 5557 5552 5545 5537 5529 5519 5509 5496 5483 5469 5451 5434 5416 5405 5398 5394 5392 5391 5389 5385